Location: Rio Tanui
(39.9167°N, 8.5167°E)
Time: 02:40:44
(UTC+00:00)

CZ-4C R/B - Pass Details

Date: 08 February 2023
Orbit: 456 x 611 km, 98.1° (Epoch: 01 April)

Event Time Altitude Azimuth Distance (km) Brightness Sun altitude
Rises 17:29:59 0° 15° (NNE) 2,619 6.5 -7.6°
Reaches altitude 10° 17:32:08 10° 19° (NNE) 1,704 5.5 -8.0°
Maximum altitude 17:35:46 64° 101° (ESE) 537 3.0 -8.7°
Drops below altitude 10° 17:39:12 10° 184° (S) 1,623 5.9 -9.3°
Sets 17:41:13 0° 187° (S) 2,480 6.9 -9.7°
